Wind_Speed
52 52 53 54 56 58 60 62 66 67 65 64 65 66 67 68 68 69 67 65 63 63 62 62 64 68 75 79 79 74 74 72 68 64 62 62 61 59
54 55 57 60 62 64 66 68 70 72 73 70 70 70 70 72 71 72 74 72 68 67 66 65 64 73 75 79 78 80 79 77 72 69 65 64 64 64
67 69 69 71 71 72 71 72 73 74 77 74 77 77 75 75 77 77 78 76 73 71 70 72 70 70 77 74 83 84 85 82 78 74 70 68 66 66
75 76 74 73 73 74 75 76 76 75 78 76 76 79 82 80 80 83 83 82 81 80 77 73 74 73 76 81 74 86 87 87 83 79 76 73 70 65
76 77 77 76 76 75 73 72 71 71 71 74 73 75 78 83 84 85 89 87 85 82 81 81 78 78 78 73 82 87 92 90 86 84 80 78 74 69
75 73 70 65 62 60 59 57 55 57 58 59 62 67 69 73 78 83 88 93 92 86 84 84 83 83 84 85 79 87 93 93 91 87 73 69 74 74
54 48 42 39 38 37 37 34 37 37 37 37 37 40 49 54 61 65 76 87 94 90 88 87 84 82 88 91 90 83 93 98 93 90 83 71 75 73
31 30 30 30 29 29 31 32 35 36 37 41 40 37 34 38 41 46 57 71 88 91 87 89 92 87 90 92 99 82 87 100 98 93 90 90 84 82
28 29 29 31 33 33 35 36 35 38 38 42 40 42 41 41 43 45 47 56 71 87 85 86 91 101 87 86 83 89 85 92 95 97 93 91 87 88
32 33 34 35 38 39 40 40 41 44 45 43 40 43 43 44 46 47 47 48 50 67 78 80 83 89 93 87 69 70 84 89 92 99 98 94 91 90
35 38 38 38 41 45 44 45 46 46 46 47 45 42 42 42 46 47 44 46 47 55 69 74 72 79 86 98 69 85 73 72 70 84 89 92 97 97
38 41 42 43 42 40 38 34 33 34 39 47 50 50 50 48 46 46 44 46 47 51 54 69 69 71 74 76 80 67 68 74 69 69 75 82 82 89
38 38 37 36 36 35 31 31 32 32 32 34 37 44 52 53 52 49 46 44 49 45 56 67 68 67 73 80 88 59 52 60 63 72 75 74 72 76
29 23 22 23 19 20 20 21 23 25 26 27 29 31 36 44 47 49 45 44 47 45 53 58 66 65 70 78 90 71 55 61 56 58 61 68 68 65
16 18 18 16 17 19 21 23 22 23 22 23 24 31 33 36 45 46 40 40 45 47 47 53 62 63 67 68 72 90 76 63 59 53 53 51 63 66
17 19 18 18 20 20 20 16 15 19 17 20 26 27 32 37 41 41 36 31 43 48 51 49 57 62 64 65 61 70 67 68 56 62 61 56 61 64
19 21 20 18 16 17 16 15 10 10 16 24 32 25 28 31 35 35 31 33 41 44 46 50 50 58 60 65 62 61 75 65 58 61 58 58 57 56
18 17 18 15 13 11 10 9 13 14 19 29 21 11 15 20 23 23 26 33 37 41 41 42 47 52 58 62 65 61 76 75 64 57 58 60 62 57
19 18 17 15 13 7 6 8 16 20 21 27 20 3 10 14 17 19 23 28 34 37 38 38 43 49 55 59 62 62 63 70 67 66 63 59 57 56
21 21 19 16 13 10 9 7 11 14 13 15 16 4 5 11 12 13 17 24 28 33 34 36 39 46 51 54 59 60 59 58 61 63 63 63 61 60
17 21 24 19 18 15 11 13 16 19 13 14 17 17 6 2 10 14 17 18 21 25 30 34 39 42 45 53 56 58 58 57 56 56 57 60 57 49
14 18 22 24 23 20 15 13 15 21 20 16 20 19 18 13 3 4 9 21 24 23 27 32 40 41 43 49 52 55 58 58 56 52 52 50 50 53
12 16 19 21 22 23 24 22 19 16 19 21 26 22 17 10 14 8 3 8 14 20 24 29 35 42 41 43 47 50 54 55 53 53 52 52 52 51
Wind_Direction
276 271 267 264 262 261 259 259 260 255 250 248 247 246 246 243 244 244 242 241 241 243 244 245 241 239 234 230 232 234 235 236 238 237 237 241 244 245
277 274 272 270 267 264 262 261 260 260 257 254 251 249 248 247 244 244 243 241 241 242 243 245 245 241 232 231 231 231 233 234 235 237 237 240 242 244
284 281 278 276 274 272 269 266 263 261 260 255 255 252 249 247 247 244 244 243 242 242 242 241 243 244 241 233 235 231 231 232 234 235 237 239 241 244
283 281 279 276 273 271 269 267 265 264 262 255 253 252 252 250 248 247 244 243 242 242 242 240 240 240 240 238 237 236 232 230 232 235 236 239 241 242
283 283 282 280 278 276 274 271 268 266 265 263 255 253 249 247 245 244 244 242 241 239 237 236 237 236 236 231 229 232 233 230 231 233 236 239 241 241
286 285 283 279 276 272 269 266 261 259 258 257 258 255 253 248 244 240 238 238 237 235 235 233 232 230 229 227 230 232 230 231 230 229 233 237 238 240
285 281 277 272 270 268 265 258 254 251 250 252 254 250 251 250 247 242 237 233 231 230 230 229 227 224 226 225 229 232 234 230 229 230 226 238 232 242
284 282 280 275 270 265 263 260 257 254 252 254 256 256 256 257 254 251 245 236 229 228 226 226 220 217 223 224 223 234 233 233 228 230 231 232 232 233
285 282 283 280 276 273 273 270 264 261 261 263 259 256 251 254 257 257 254 246 234 225 225 225 224 219 220 222 228 226 231 226 227 230 230 233 235 233
292 292 290 285 281 279 277 272 264 262 262 263 259 254 253 251 254 257 257 252 246 233 226 223 225 225 222 216 227 222 222 228 228 228 232 234 237 239
293 292 290 289 285 281 278 273 271 268 265 263 261 255 254 253 251 254 257 254 244 234 228 224 225 224 223 227 216 217 220 227 228 229 231 235 240 243
294 292 290 285 279 275 275 275 275 270 263 258 256 256 255 252 249 251 253 251 249 232 222 226 224 224 221 219 219 206 208 223 225 220 228 230 233 239
293 288 285 278 274 274 275 279 278 269 262 258 256 254 250 248 249 247 250 251 246 234 227 225 222 221 219 216 219 206 206 213 217 219 220 227 233 231
305 305 305 296 278 278 278 277 272 272 279 278 271 264 255 244 240 237 243 249 244 237 225 226 222 221 219 220 221 213 218 209 202 204 215 219 225 227
305 306 303 299 295 291 291 288 283 282 280 285 284 264 255 242 226 233 240 245 234 228 225 223 220 220 220 220 225 227 230 214 210 207 211 221 223 225
302 309 309 294 291 300 301 279 283 284 301 300 285 267 247 233 228 234 237 237 223 221 223 219 218 217 218 218 220 229 217 211 210 214 215 216 212 220
339 329 314 302 291 298 299 291 310 315 314 322 313 260 233 225 227 236 234 224 216 221 223 223 215 216 217 216 217 215 202 207 216 215 215 217 215 218
9 14 2 341 308 295 305 305 324 306 302 321 332 233 223 233 222 219 223 219 216 218 217 221 216 212 214 218 216 213 219 221 219 219 220 224 222 220
16 17 14 9 16 10 9 329 307 314 321 328 357 202 185 198 206 214 218 220 218 216 215 218 215 209 210 216 217 216 217 226 222 223 225 225 220 217
37 28 28 32 32 27 28 27 358 348 10 355 11 27 207 208 200 206 214 217 215 213 215 215 211 206 207 213 218 216 219 221 223 224 228 232 233 230
51 46 44 45 47 44 41 45 51 49 59 43 44 43 68 191 207 210 205 199 199 205 206 208 207 205 204 211 216 218 219 223 227 230 229 234 239 239
46 48 58 57 54 52 47 44 58 62 63 56 45 45 48 59 93 189 207 207 206 206 208 206 205 200 203 209 212 218 219 223 227 231 234 236 237 240
54 53 51 52 55 58 59 56 55 60 59 56 56 53 53 43 53 64 149 184 202 210 211 210 204 202 203 207 211 215 220 223 228 231 232 235 239 242
Height
5507 5507 5509 5509 5510 5511 5513 5512 5512 5519 5529 5536 5540 5544 5548 5553 5558 5566 5575 5584 5590 5598 5607 5615 5621 5627 5635 5640 5647 5655 5665 5672 5680 5685 5692 5699 5705 5711
5489 5489 5490 5489 5491 5492 5491 5491 5490 5492 5498 5511 5518 5521 5525 5528 5535 5540 5549 5558 5568 5576 5586 5594 5602 5609 5616 5624 5629 5637 5646 5655 5664 5671 5675 5683 5689 5695
5466 5464 5465 5463 5464 5463 5462 5463 5464 5464 5466 5488 5486 5493 5498 5504 5509 5517 5524 5534 5544 5552 5561 5571 5581 5589 5597 5604 5614 5619 5626 5636 5646 5653 5661 5667 5673 5680
5441 5436 5436 5436 5436 5435 5433 5433 5434 5436 5434 5452 5459 5463 5467 5476 5483 5489 5498 5507 5515 5525 5533 5544 5557 5567 5577 5586 5593 5603 5608 5617 5627 5637 5643 5652 5657 5666
5416 5411 5408 5405 5403 5402 5402 5404 5405 5407 5407 5410 5432 5434 5441 5447 5453 5460 5469 5478 5487 5495 5505 5517 5529 5542 5554 5565 5571 5578 5590 5598 5608 5617 5626 5635 5643 5650
5390 5386 5383 5379 5376 5375 5375 5378 5380 5382 5385 5385 5394 5406 5408 5417 5421 5432 5438 5446 5458 5467 5478 5489 5501 5515 5528 5542 5551 5559 5568 5580 5589 5601 5611 5615 5624 5633
5366 5362 5361 5359 5358 5358 5359 5363 5364 5367 5370 5371 5376 5382 5384 5388 5395 5403 5405 5416 5428 5441 5448 5460 5479 5491 5501 5515 5530 5539 5547 5560 5570 5580 5592 5596 5608 5616
5352 5350 5349 5348 5348 5348 5349 5351 5353 5355 5358 5359 5364 5369 5371 5372 5376 5378 5382 5388 5398 5414 5421 5433 5447 5461 5475 5491 5507 5520 5530 5539 5551 5562 5572 5582 5591 5601
5342 5341 5340 5339 5338 5338 5339 5340 5341 5342 5344 5346 5349 5352 5357 5359 5361 5362 5363 5365 5372 5387 5396 5411 5423 5438 5454 5473 5487 5500 5509 5521 5532 5544 5554 5564 5572 5582
5333 5331 5330 5328 5327 5326 5326 5327 5328 5329 5330 5332 5335 5337 5341 5344 5346 5348 5350 5352 5359 5367 5379 5393 5406 5420 5436 5453 5468 5479 5490 5502 5516 5525 5536 5546 5556 5564
5324 5321 5318 5316 5314 5312 5312 5312 5313 5315 5315 5317 5321 5324 5327 5330 5332 5333 5337 5340 5346 5354 5364 5378 5390 5404 5419 5433 5450 5462 5475 5487 5497 5510 5519 5529 5539 5546
5314 5310 5307 5303 5300 5299 5298 5299 5300 5299 5298 5300 5305 5308 5311 5315 5318 5321 5325 5328 5333 5343 5354 5361 5375 5388 5403 5418 5435 5445 5457 5471 5481 5493 5504 5513 5522 5528
5302 5297 5294 5291 5289 5288 5287 5287 5285 5284 5285 5286 5288 5290 5293 5297 5303 5307 5312 5316 5320 5330 5340 5348 5361 5373 5387 5405 5420 5431 5440 5456 5465 5477 5486 5497 5506 5515
5291 5287 5284 5281 5279 5279 5278 5277 5276 5277 5277 5277 5277 5277 5278 5280 5287 5293 5299 5304 5308 5317 5326 5334 5348 5361 5373 5387 5401 5416 5427 5440 5447 5456 5468 5480 5492 5502
5287 5284 5280 5278 5276 5274 5272 5271 5270 5269 5267 5266 5265 5263 5265 5267 5272 5279 5285 5290 5294 5304 5314 5321 5333 5347 5360 5375 5386 5399 5415 5427 5435 5444 5454 5466 5479 5489
5284 5280 5276 5274 5272 5270 5268 5266 5265 5264 5261 5259 5255 5253 5252 5255 5261 5267 5274 5277 5282 5291 5301 5312 5322 5336 5349 5362 5373 5386 5403 5416 5423 5433 5442 5452 5463 5475
5281 5276 5272 5268 5267 5266 5263 5262 5260 5258 5256 5251 5242 5237 5240 5244 5250 5258 5262 5266 5274 5282 5292 5303 5313 5327 5341 5350 5362 5375 5389 5401 5413 5421 5430 5441 5449 5458
5281 5276 5270 5265 5261 5261 5260 5259 5257 5255 5251 5244 5232 5230 5234 5239 5244 5248 5253 5259 5266 5275 5284 5294 5304 5315 5329 5340 5352 5365 5378 5389 5402 5412 5420 5428 5435 5443
5282 5277 5272 5267 5262 5259 5259 5258 5256 5252 5248 5242 5234 5231 5233 5237 5241 5244 5248 5253 5260 5269 5278 5286 5295 5305 5317 5330 5341 5352 5365 5378 5390 5400 5408 5417 5423 5430
5285 5280 5275 5270 5266 5263 5262 5260 5256 5251 5247 5242 5238 5235 5236 5237 5240 5243 5246 5250 5256 5263 5272 5280 5288 5297 5309 5320 5333 5345 5354 5365 5376 5386 5395 5403 5411 5418
5289 5284 5278 5274 5270 5267 5265 5263 5257 5252 5248 5245 5242 5240 5238 5239 5241 5243 5246 5250 5255 5261 5268 5275 5283 5291 5302 5313 5325 5336 5348 5358 5366 5374 5384 5393 5400 5407
5291 5287 5283 5280 5276 5272 5269 5266 5263 5259 5254 5251 5249 5247 5245 5243 5243 5244 5246 5250 5255 5261 5267 5272 5279 5287 5296 5308 5320 5331 5340 5349 5359 5368 5374 5382 5391 5397
5292 5289 5286 5283 5281 5278 5274 5270 5268 5265 5262 5259 5256 5253 5251 5249 5249 5248 5249 5252 5256 5260 5264 5269 5275 5284 5292 5301 5313 5324 5333 5343 5351 5358 5367 5374 5378 5383